Regional Weather Roundup
Issued by NWS

Home | Current Version | Previous Version | Graphics & Text | Print | Product List | Glossary On
Versions: 1 2 3 4 5 6 7 8 9 10 11 12 13 14 15 16 17 18 19 20 21 22 23 24 25 26 27 28 29 30 31 32 33 34 35 36 37 38 39 40 41 42 43 44 45 46 47 48 49 50
000
ASUS45 KSLC 012310
RWRUT

UTAH REGIONAL WEATHER ROUNDUP
NATIONAL WEATHER SERVICE SALT LAKE CITY UT
500 PM MDT WED JUL 01 2015

UTZ001>011-023>025-020000-

NORTHERN UTAH

CITY           SKY/WX    TMP DP  RH WIND       PRES   REMARKS
BRIGHAM CITY   SUNNY     97  37  12 W9        30.01S HX  92
HILL AFB       SUNNY     95  44  17 VRB5      30.06F HX  91
LOGAN          SUNNY     96  47  18 N9        30.02F HX  92
OGDEN          SUNNY     95  49  20 W10       30.02F HX  92
PROVO AIRPORT  MOSUNNY   95  52  23 NW15      30.03F HX  92
SALT LAKE CITY PTSUNNY   97  49  19 N8G18     30.01F HX  94
VERNAL         CLOUDY    79  51  37 NW10      30.08F
WENDOVER       MOSUNNY   97  45  16 SE10      30.02F HX  93
HEBER CITY     SUNNY     93  39  15 N10       30.11F
WEST JORDAN    SUNNY     93  46  20 N10       30.06F

$$

UTZ012>022-026-027-020000-

SOUTHERN/CENTRAL UTAH

CITY           SKY/WX    TMP DP  RH WIND       PRES   REMARKS
BLANDING       MOSUNNY   94  43  16 CALM      30.12F HX  90
BRYCE CANYON   TSTM      71  50  47 W31G38    30.26S
CEDAR CITY     CLOUDY    93  43  17 N9        30.07F
DELTA          MOSUNNY   98  41  14 N5        30.02F HX  93
HANKSVILLE     MOSUNNY  100  41  13 CALM      29.95F HX  96
MILFORD        PTSUNNY   98  46  17 NE16G26   30.02F HX  94
MOAB/CYNLANDS  SUNNY     99  44  15 VRB3      29.93F HX  95
PRICE          PTSUNNY   88  51  28 NE14      30.10F
ST GEORGE      CLEAR    106  54  17 W15G23    29.83F HX 104
KANAB          MOSUNNY   99  50  19 CALM      30.03F HX  95

$$

REGIONAL REPORTS     COLORADO/ARIZONA

CITY           SKY/WX    TMP DP  RH WIND       PRES   REMARKS
CRAIG, CO      MOSUNNY   87  46  24 CALM      30.15F
GRAND JUNCTION PTSUNNY   96  45  17 W6        29.98F HX  92
RIFLE          MOSUNNY   92  45  19 VRB3      30.06F
MONTROSE       PTSUNNY   93  45  19 NW10      30.09F
CORTEZ         SUNNY     94  45  18 VRB3      30.07F HX  90
PAGE, AZ       SUNNY    106  40  10 NE6       29.90F HX 100
GRAND CANYON   CLOUDY    76  52  43 SW13      30.19S
KINGMAN        PTSUNNY   90  56  31 SW20      30.00F
FLAGSTAFF      CLOUDY    72  55  55 N5        30.26S THUNDER

$$

REGIONAL REPORTS    NEVADA/IDAHO/WYOMING

CITY           SKY/WX    TMP DP  RH WIND       PRES   REMARKS
LAS VEGAS, NV  MOSUNNY  106  55  18 SW20G29   29.77F HX 105
ELY            PTSUNNY   95  37  13 N10G18    30.14F HX  90
ELKO           PTSUNNY   97  45  16 N18G24    30.08F HX  93
POCATELLO, ID  SUNNY     95  45  17 W16       30.04F HX  91
BURLEY         MOSUNNY   93  49  22 W12       30.01F HX  90
EVANSTON, WY   MOSUNNY   86  36  16 NW15G24   30.25F
ROCK SPRINGS   MOSUNNY   88  39  17 W18G24    30.16F
KEMMERER       SUNNY     84  37  18 NW23G29   30.25F

$$



USA.gov is the U.S. government's official web portal to all federal, state and local government web resources and services.